Location: Central Coast NSW, Australia
(33.2407°S, 151.4316°E)
Time: 20:04:26
(UTC+11:00)

Envisat - Visible Passes

Search period start: 18 February 2018 00:00
Search period end: 28 February 2018 00:00
Orbit: 764 x 766 km, 98.2° (Epoch: 17 February)

Date Brightness Start Highest point End Pass type
(mag) Time Alt. Az. Time Alt. Az. Time Alt. Az.
18 Feb 3.2 21:22:27 10° S 21:27:36 73° WSW 21:32:39 10° NNW visible
19 Feb 3.2 20:45:56 10° SSE 20:50:53 46° E 20:55:45 10° N visible
19 Feb 5.6 22:26:10 10° SSW 22:29:27 17° WSW 22:32:44 10° WNW visible
20 Feb 4.3 20:10:19 10° SE 20:13:58 19° E 20:17:35 10° NE visible
20 Feb 4.3 21:48:18 10° S 21:53:04 39° WSW 21:57:47 10° NW visible
21 Feb 2.9 21:11:18 10° SSE 21:16:29 87° ENE 21:21:34 10° NNW visible
22 Feb 3.5 20:35:00 10° SSE 20:39:42 36° E 20:44:21 10° NNE visible
22 Feb 5.3 22:14:34 10° SSW 22:18:26 22° WSW 22:22:17 10° WNW visible
23 Feb 4.5 19:59:54 10° ESE 20:02:45 15° E 20:05:34 10° NE visible
23 Feb 3.8 21:37:01 10° S 21:42:00 51° WSW 21:46:54 10° NNW visible
24 Feb 2.9 21:00:13 10° SSE 21:05:21 67° ENE 21:10:25 10° N visible
24 Feb 6.0 22:41:46 10° SW 22:43:42 12° WSW 22:45:38 10° W visible
25 Feb 3.9 20:24:09 10° SE 20:28:31 28° E 20:32:50 10° NNE visible
25 Feb 4.9 22:03:05 10° SSW 22:07:24 28° WSW 22:11:41 10° NW visible
26 Feb 3.3 21:25:48 10° S 21:30:54 66° WSW 21:35:57 10° NNW visible
27 Feb 3.1 20:49:11 10° SSE 20:54:12 51° E 20:59:09 10° N visible
27 Feb 5.7 22:29:44 10° SSW 22:32:43 16° WSW 22:35:41 10° WNW visible
